Weather in Pervomaysk

Russia / Sakhalin District     49°57′56″N   143°16′11″E
temp.,
°C
wind,
m/s
gust,
m/s
humid.,
%
clouds,
%
prec.,
mm/h
press.,
hPa
HPBL,
m
20 january, wed
wed2023:00−26nw2109442 0.0 1013341
02:00−28nw249842 0.0 1014125
05:00−28nw279671 0.0 1013179
08:00−28nw31590100 0.0 1014533
11:00−24nw51670100 0.0 1014696
14:00−21nw515696 0.0 1015714
17:00−21nw410753 0.0 1016521
20:00−24nnw35810 0.0 102094
21 january, thu
thu2123:00−24n22690 0.0 102024
02:00−22nne12580 0.0 101920
05:00−24e015118 0.0 101720
08:00−21sse1262100 0.0 101520
11:00−18s1268100 0.0 1013105
14:00−16ssw2394100 0.6 1010213
17:00−15wsw1195100 0.8 1009150
20:00−17nw2297100 0.1 101052
22 january, fri
fri2223:00−18nw3694100 0.1 1011246
02:00−21nw259679 0.0 1012190
05:00−24nw229760 0.0 101332
08:00−26nnw239838 0.0 101454
11:00−23nw369322 0.0 1014322
14:00−21nw4108212 0.0 1014845
17:00−21nw598655 0.0 1014897
20:00−26nw249586 0.0 1015117
23 january, sat
sat2323:00−27nw269882 0.0 1016204
02:00−28nw258922 0.0 1017124
05:00−29nnw359011 0.0 101993
08:00−30nnw23950 0.0 102168
11:00−26nw24920 0.0 1022171
14:00−21nw39730 0.0 1022735
17:00−21nw14840 0.0 1022236
20:00−26nnw11810 0.0 102420
24 january, sun
sun2423:00−27n11840 0.0 102519
02:00−26nne11760 0.0 102420
05:00−25nne11690 0.0 102420
08:00−25nne116563 0.0 102420
11:00−20wnw116955 0.0 102436
14:00−15wnw127139 0.0 1023562
17:00−16nw238543 0.0 1024141
20:00−21n128951 0.0 102620